[[{"header":{"parameterUnit":"m.s-1","parameterCategory":1,"la1":30.2991,"la2":30.254,"lo1":-89.0895,"lo2":-89.0444,"dy":0.0017,"dx":0.0017,"nx":28,"ny":28,"refTime":"2025-05-26T03:00:00:Z","depth":0,"parameterNumber":2,"parameterNumberName":"U-component_of_WINDS"},"data":[0,0,0,0,0,0,0,0,0,0,0,0,0,0,0,0,0,0,0,0,0,0,0,0,0,0,0,0,0,0,0,0,0,0,0,0,0,0,0,0,0,0,0,0,0,0,0,0,0,0,0,0,0,0,0,0,0,0,-0.1137,-0.1137,0,-0.1144,-0.1144,-0.1144,-0.1158,-0.1158,-0.1158,-0.1159,-0.1165,-0.1165,-0.1165,0,0,0,0,0,0,0,0,0,0,0,0,0,-0.1136,-0.1136,-0.1137,-0.1137,-0.1137,-0.1144,-0.1144,-0.1144,-0.1158,-0.1158,-0.1158,-0.1159,-0.1165,-0.1165,-0.1165,0,0,0,0,0,0,0,0,0,0,0,0,0,-0.1139,-0.1136,-0.1137,-0.1145,-0.1146,-0.1144,-0.1144,-0.1144,-0.1158,-0.1158,-0.1159,-0.1159,-0.1165,-0.1165,-0.1165,-0.1155,0,0,-0.1164,-0.1164,0,0,0,0,0,0,0,0,-0.1139,-0.1139,-0.1144,-0.1145,-0.1145,-0.1151,-0.1146,-0.1148,-0.1158,-0.1153,-0.1159,-0.1159,-0.116,-0.116,-0.116,-0.1156,-0.1156,-0.1164,-0.1164,-0.1164,-0.1164,0,0,0,0,0,0,0,-0.1139,-0.1139,-0.114,-0.1144,-0.1145,-0.1148,-0.1149,-0.1146,-0.1154,-0.1154,-0.1155,-0.1155,-0.116,-0.116,-0.1161,-0.1156,-0.1164,-0.1164,-0.1164,-0.1164,-0.1145,-0.1145,0,0,0,0,0,0,-0.1138,-0.1139,-0.114,-0.114,-0.1143,-0.1148,-0.1149,-0.1148,-0.1154,-0.1155,-0.1155,-0.1156,-0.116,-0.1161,-0.1161,-0.1151,-0.1164,-0.1164,-0.1164,-0.1145,-0.1145,-0.1144,0,0,0,0,0,0,-0.1137,-0.1138,-0.1139,-0.114,-0.114,-0.1147,-0.1147,-0.1148,-0.1149,-0.1155,-0.1156,-0.1154,-0.1161,-0.1161,-0.1157,-0.1151,-0.1164,-0.1164,-0.1146,-0.1145,-0.1145,-0.1131,0,0,0,0,0,0,-0.1137,-0.1137,-0.1134,-0.114,-0.114,-0.1135,-0.1146,-0.1148,-0.1148,-0.115,-0.1154,-0.1156,-0.1161,-0.1157,-0.1157,-0.1151,-0.1164,-0.1146,-0.1146,-0.1145,-0.1132,-0.113,-0.1128,0,0,0,0,0,-0.1137,-0.1129,-0.1134,-0.1134,-0.1136,-0.1135,-0.1135,-0.1142,-0.1148,-0.1145,-0.1149,-0.1155,-0.1152,-0.1156,-0.1156,-0.1151,-0.1147,-0.1146,-0.1145,-0.1133,-0.113,-0.1128,0,0,0,0,0,0,-0.1123,-0.113,-0.1135,-0.1129,-0.1131,-0.1137,-0.1133,-0.1139,-0.114,-0.1141,-0.1149,-0.115,-0.1145,-0.1147,-0.1152,-0.1143,-0.115,-0.1149,-0.1141,-0.1139,-0.1137,-0.1137,-0.1163,0,0,0,0,0,-0.1119,-0.1117,-0.1124,-0.1118,-0.1119,-0.1126,-0.1126,-0.1131,-0.1133,-0.1134,-0.1138,-0.1141,-0.114,-0.114,-0.114,-0.1132,-0.1134,-0.1128,-0.1127,-0.1125,-0.1124,-0.1121,-0.1119,-0.1141,-0.1141,-0.1141,0,0,-0.1111,-0.1115,-0.1113,-0.1115,-0.1118,-0.1116,-0.1127,-0.1124,-0.1123,-0.1134,-0.1131,-0.1134,-0.1137,-0.1131,-0.1129,-0.1133,-0.1118,-0.1124,-0.1123,-0.1123,-0.112,-0.1118,-0.1116,-0.1141,-0.1141,-0.1141,0,0,-0.1095,-0.1098,-0.1093,-0.1096,-0.1099,-0.1104,-0.1103,-0.1108,-0.1111,-0.1108,-0.1116,-0.1115,-0.1114,-0.1116,-0.1117,-0.1102,-0.1109,-0.1102,-0.1093,-0.1089,-0.1088,-0.1086,-0.1082,-0.108,-0.1101,-0.1101,-0.1101,0,-0.1085,-0.1083,-0.109,-0.1088,-0.1089,-0.1099,-0.1094,-0.1096,-0.1099,-0.11,-0.1104,-0.1104,-0.1106,-0.1102,-0.1098,-0.1099,-0.1098,-0.1102,-0.1087,-0.1086,-0.1085,-0.108,-0.1079,-0.11,-0.11,-0.1101,-0.1101,0,-0.107,-0.1068,-0.1064,-0.1068,-0.1068,-0.1065,-0.1072,-0.1071,-0.1076,-0.1081,-0.1077,-0.1081,-0.1082,-0.1081,-0.1086,-0.1078,-0.108,-0.1086,-0.1094,-0.1082,-0.1078,-0.1076,-0.1099,-0.11,-0.11,-0.11,0,0,-0.1045,-0.1053,-0.1052,-0.1054,-0.1059,-0.1058,-0.1055,-0.1056,-0.1056,-0.1058,-0.1056,-0.1055,-0.1061,-0.1062,-0.1067,-0.1064,-0.1053,-0.107,-0.107,-0.1067,-0.1045,-0.1041,-0.1039,-0.1057,-0.1057,-0.1057,-0.1045,0,-0.1031,-0.1027,-0.1034,-0.1028,-0.1027,-0.1037,-0.1035,-0.1038,-0.1041,-0.1041,-0.1046,-0.1045,-0.1052,-0.1053,-0.1051,-0.1055,-0.1049,-0.1056,-0.1056,-0.1056,-0.1055,-0.1037,-0.1032,-0.1021,-0.1043,-0.1043,-0.1043,0,-0.1014,-0.1016,-0.101,-0.1016,-0.1016,-0.1014,-0.1016,-0.1016,-0.1019,-0.1022,-0.1024,-0.103,-0.1028,-0.1036,-0.1033,-0.1037,-0.1038,-0.104,-0.104,-0.104,-0.1049,-0.1037,-0.1017,-0.1015,-0.104,-0.1041,-0.1041,0,-0.0998,-0.0999,-0.0996,-0.0997,-0.1004,-0.1002,-0.1005,-0.1009,-0.1009,-0.1011,-0.1011,-0.1013,-0.1014,-0.1014,-0.1021,-0.1026,-0.1018,-0.1026,-0.102,-0.102,-0.1018,-0.1018,-0.0998,-0.1018,-0.1018,-0.1018,-0.1018,0,-0.0982,-0.0978,-0.0988,-0.0987,-0.0983,-0.0991,-0.0987,-0.099,-0.0994,-0.0993,-0.1001,-0.1,-0.1008,-0.1008,-0.1013,-0.1011,-0.1011,-0.1013,-0.1015,-0.1013,-0.1013,-0.1013,-0.1015,-0.1017,-0.1017,-0.1018,-0.1018,0,-0.0963,-0.097,-0.0967,-0.0974,-0.0975,-0.0972,-0.0978,-0.0977,-0.0981,-0.098,-0.098,-0.0987,-0.0988,-0.0994,-0.0996,-0.0999,-0.0994,-0.0997,-0.0993,-0.0994,-0.0989,-0.0989,-0.0969,-0.0967,-0.0987,-0.0987,-0.0987,0,-0.0953,-0.095,-0.0957,-0.0957,-0.0959,-0.0959,-0.096,-0.0968,-0.0968,-0.0972,-0.0971,-0.0972,-0.0973,-0.0973,-0.0978,-0.098,-0.0983,-0.0975,-0.0983,-0.0981,-0.0983,-0.0983,-0.0983,-0.0974,-0.0974,-0.0973,-0.0973,0,-0.0934,-0.0938,-0.0938,-0.0941,-0.0941,-0.0943,-0.0946,-0.0945,-0.0954,-0.0954,-0.0955,-0.0956,-0.0958,-0.0959,-0.0961,-0.0964,-0.097,-0.0971,-0.097,-0.0968,-0.0966,-0.0968,-0.0989,-0.0971,-0.0971,-0.0972,-0.0972,-0.0972,-0.092,-0.0918,-0.0922,-0.0923,-0.0926,-0.0928,-0.0928,-0.0932,-0.0933,-0.0935,-0.094,-0.094,-0.0944,-0.0948,-0.095,-0.095,-0.0954,-0.0952,-0.0952,-0.0951,-0.095,-0.0966,-0.095,-0.095,-0.095,-0.095,-0.095,0,-0.0902,-0.0905,-0.0906,-0.0909,-0.091,-0.0916,-0.0919,-0.0919,-0.0919,-0.0923,-0.0924,-0.0925,-0.0926,-0.0931,-0.0933,-0.0932,-0.0935,-0.0932,-0.0933,-0.0933,-0.0947,-0.0948,-0.093,-0.093,-0.093,-0.093,-0.093,-0.093,-0.0893,-0.089,-0.0894,-0.0894,-0.0897,-0.0898,-0.0899,-0.0901,-0.0904,-0.0905,-0.0906,-0.0909,-0.0913,-0.0916,-0.0917,-0.0919,-0.0919,-0.0915,-0.0918,-0.093,-0.0932,-0.0934,-0.0935,-0.0915,-0.0915,-0.0905,-0.0905,-0.0905]},{"header":{"parameterUnit":"m.s-1","parameterCategory":1,"la1":30.2991,"la2":30.254,"lo1":-89.0895,"lo2":-89.0444,"dy":0.0017,"dx":0.0017,"nx":28,"ny":28,"refTime":"2025-05-26T03:00:00:Z","depth":0,"parameterNumber":3,"parameterNumberName":"V-component_of_WINDS"},"data":[0,0,0,0,0,0,0,0,0,0,0,0,0,0,0,0,0,0,0,0,0,0,0,0,0,0,0,0,0,0,0,0,0,0,0,0,0,0,0,0,0,0,0,0,0,0,0,0,0,0,0,0,0,0,0,0,0,0,6.0435,6.0435,0,6.0467,6.0467,6.0468,6.0406,6.0404,6.0402,6.04,6.0429,6.0431,6.0434,0,0,0,0,0,0,0,0,0,0,0,0,0,6.0315,6.0317,6.0435,6.0435,6.0436,6.0467,6.0468,6.0468,6.0406,6.0403,6.0401,6.0399,6.0428,6.0431,6.0434,0,0,0,0,0,0,0,0,0,0,0,0,0,6.0359,6.0318,6.0435,6.0409,6.0407,6.0467,6.0468,6.0468,6.0406,6.0403,6.04,6.0397,6.0427,6.0431,6.0435,6.0521,0,0,6.0447,6.0449,0,0,0,0,0,0,0,0,6.0356,6.0363,6.0412,6.041,6.0408,6.0429,6.0436,6.0486,6.0407,6.0406,6.04,6.0396,6.0431,6.0435,6.0447,6.0522,6.0523,6.0447,6.045,6.0451,6.0453,0,0,0,0,0,0,0,6.0353,6.0362,6.0447,6.0413,6.0411,6.0394,6.0397,6.0445,6.0435,6.0406,6.0402,6.0407,6.0429,6.0444,6.0447,6.0524,6.0447,6.0451,6.0453,6.0455,6.067,6.0673,0,0,0,0,0,0,6.0354,6.0359,6.0446,6.0448,6.0374,6.0398,6.0402,6.0426,6.0435,6.0433,6.0409,6.0404,6.0438,6.0443,6.0448,6.0549,6.0451,6.0455,6.0457,6.0667,6.0671,6.0674,0,0,0,0,0,0,6.0352,6.0363,6.0445,6.0403,6.0412,6.0404,6.0431,6.0428,6.0442,6.0437,6.0435,6.0426,6.0436,6.0443,6.0503,6.0549,6.0457,6.0461,6.0663,6.0668,6.0673,6.0752,0,0,0,0,0,0,6.0349,6.0362,6.0396,6.0404,6.0415,6.0501,6.0434,6.0431,6.0449,6.0442,6.0452,6.045,6.0434,6.0498,6.0507,6.0553,6.0464,6.0659,6.0665,6.0671,6.0745,6.0759,6.0771,0,0,0,0,0,6.0345,6.0416,6.0398,6.0409,6.0457,6.0504,6.051,6.0491,6.0453,6.0486,6.0483,6.045,6.0543,6.0504,6.0515,6.0562,6.0656,6.0663,6.067,6.074,6.0756,6.0771,0,0,0,0,0,0,6.0412,6.0417,6.0397,6.0473,6.0489,6.0493,6.0534,6.0509,6.0535,6.0527,6.0501,6.0503,6.0569,6.0572,6.0529,6.0646,6.0593,6.0603,6.0642,6.0658,6.067,6.0668,6.0467,0,0,0,0,0,6.0436,6.0476,6.0477,6.0544,6.0553,6.0543,6.0563,6.0547,6.0561,6.0567,6.0568,6.0583,6.0615,6.0636,6.0666,6.0746,6.0746,6.0783,6.0796,6.0807,6.0815,6.0857,6.0873,6.0699,6.0699,6.0699,0,0,6.0486,6.0493,6.052,6.0558,6.0568,6.0608,6.0549,6.0594,6.0622,6.0573,6.0631,6.0633,6.0646,6.0717,6.0748,6.0721,6.0864,6.0816,6.0825,6.0828,6.0866,6.0883,6.0898,6.0704,6.0703,6.0702,0,0,6.0597,6.0607,6.0664,6.0676,6.0692,6.0685,6.0699,6.0707,6.0707,6.0765,6.0728,6.0762,6.0818,6.0829,6.0842,6.0958,6.0928,6.0968,6.1035,6.1076,6.1089,6.1101,6.1142,6.1157,6.0977,6.0977,6.0977,0,6.0656,6.0716,6.0696,6.0744,6.0761,6.072,6.0777,6.0789,6.0814,6.0826,6.0796,6.0866,6.0872,6.0944,6.0973,6.0985,6.0999,6.0966,6.1089,6.1101,6.1112,6.115,6.1166,6.0981,6.0981,6.098,6.098,0,6.0788,6.083,6.0874,6.0901,6.0923,6.0975,6.0961,6.0986,6.0968,6.0963,6.1022,6.1029,6.1058,6.1074,6.1057,6.1144,6.1127,6.1094,6.104,6.1134,6.1169,6.1184,6.0988,6.0987,6.0985,6.0984,0,0,6.0942,6.0957,6.0973,6.0985,6.1,6.1032,6.1081,6.1112,6.1133,6.1151,6.1191,6.124,6.1209,6.1224,6.1208,6.1244,6.1334,6.1206,6.1206,6.1229,6.1429,6.1454,6.1471,6.1314,6.1317,6.1319,6.1428,0,6.1051,6.1138,6.1121,6.1206,6.1244,6.1205,6.1248,6.1261,6.1258,6.1289,6.1284,6.1319,6.1277,6.1285,6.1319,6.1316,6.1374,6.1308,6.135,6.1352,6.1347,6.149,6.1516,6.1619,6.1442,6.1444,6.1446,0,6.1191,6.1216,6.1304,6.1313,6.1329,6.1368,6.1394,6.1425,6.1438,6.1433,6.1451,6.1427,6.1474,6.1421,6.1485,6.1441,6.1457,6.1458,6.1461,6.1464,6.1404,6.1496,6.1651,6.1666,6.1468,6.1466,6.1464,0,6.1293,6.1349,6.1409,6.142,6.1432,6.1461,6.1467,6.1478,6.1497,6.152,6.1532,6.1559,6.1574,6.1595,6.1579,6.1541,6.1646,6.1591,6.1642,6.1643,6.1665,6.1664,6.1825,6.1677,6.1677,6.1677,6.1677,0,6.1417,6.1472,6.1456,6.1492,6.1553,6.1533,6.1592,6.1594,6.1604,6.1639,6.1607,6.1641,6.1618,6.1649,6.1637,6.1692,6.1699,6.1695,6.1691,6.1698,6.1698,6.1707,6.17,6.1681,6.168,6.1679,6.1678,0,6.1542,6.1533,6.1596,6.1603,6.1605,6.165,6.1655,6.1688,6.1683,6.1728,6.1737,6.1728,6.1764,6.175,6.1787,6.1778,6.1849,6.1836,6.1845,6.1841,6.1893,6.1888,6.2064,6.2086,6.1926,6.1927,6.1928,0,6.1621,6.1663,6.1675,6.1697,6.1706,6.1742,6.1761,6.1742,6.1764,6.1783,6.1814,6.1847,6.1872,6.193,6.1926,6.1954,6.194,6.2,6.1944,6.195,6.194,6.1938,6.1942,6.2011,6.2013,6.2015,6.2016,0,6.1763,6.1756,6.1787,6.1816,6.1841,6.1863,6.1881,6.1901,6.1883,6.1908,6.1945,6.1964,6.2003,6.2035,6.206,6.2064,6.2037,6.2034,6.2047,6.2054,6.2057,6.2056,6.1874,6.203,6.2028,6.2027,6.2027,6.2026,6.1867,6.1902,6.1916,6.1951,6.1963,6.1981,6.2013,6.2012,6.2042,6.2073,6.206,6.2101,6.2113,6.2144,6.2152,6.2184,6.216,6.218,6.2184,6.2189,6.2196,6.2053,6.2188,6.2188,6.2188,6.2187,6.2187,0,6.2006,6.2013,6.2045,6.2073,6.21,6.2074,6.2093,6.2117,6.2154,6.2169,6.2194,6.2235,6.2267,6.2266,6.2294,6.232,6.2308,6.2328,6.2325,6.2326,6.2216,6.2201,6.2337,6.2337,6.2337,6.2337,6.2337,6.2337,6.2081,6.214,6.2135,6.2198,6.2204,6.2246,6.2259,6.2275,6.2287,6.2335,6.2361,6.236,6.2368,6.2397,6.2424,6.2423,6.2434,6.2459,6.2453,6.2349,6.2334,6.232,6.2306,6.2462,6.2462,6.2561,6.2562,6.2563]}]]